Time,TemperatureF,DewpointF,PressureIn,WindDirection,WindDirectionDegrees,WindSpeedMPH,WindSpeedGustMPH,Humidity,HourlyPrecipIn,Conditions,Clouds,dailyrainin,SoftwareType,DateUTC
2013-02-14 00:02:00,41.0,40.5,29.53,NW,315,1.1,-999.0,98,-99.99,,,0.00,Acu-Link.com,2013-02-14 05:02:00,
2013-02-14 00:17:00,41.0,40.5,29.54,NNE,22,1.7,-999.0,98,-99.99,,,0.00,Acu-Link.com,2013-02-14 05:17:00,
2013-02-14 00:33:00,41.2,40.7,29.54,North,0,1.7,-999.0,98,-99.99,,,0.00,Acu-Link.com,2013-02-14 05:33:00,
2013-02-14 00:48:00,41.4,40.9,29.54,NE,45,2.2,-999.0,98,-99.99,,,0.00,Acu-Link.com,2013-02-14 05:48:00,
2013-02-14 01:03:00,41.4,40.9,29.55,NE,45,0.0,-999.0,98,-99.99,,,0.00,Acu-Link.com,2013-02-14 06:03:00,
2013-02-14 01:19:00,41.4,40.9,29.55,North,0,0.0,-999.0,98,-99.99,,,0.00,Acu-Link.com,2013-02-14 06:19:00,
2013-02-14 01:34:00,41.4,40.9,29.55,North,0,0.0,-999.0,98,-99.99,,,0.00,Acu-Link.com,2013-02-14 06:34:00,
2013-02-14 01:49:00,41.5,41.0,29.57,North,0,0.0,-999.0,98,-99.99,,,0.00,Acu-Link.com,2013-02-14 06:49:00,
2013-02-14 02:05:00,41.5,41.0,29.59,North,0,0.0,-999.0,98,-99.99,,,0.00,Acu-Link.com,2013-02-14 07:05:00,
2013-02-14 02:20:00,41.5,41.0,29.60,North,0,0.0,-999.0,98,-99.99,,,0.00,Acu-Link.com,2013-02-14 07:20:00,
2013-02-14 02:35:00,41.7,41.2,29.60,North,0,0.0,-999.0,98,-99.99,,,0.00,Acu-Link.com,2013-02-14 07:35:00,
2013-02-14 02:50:00,41.9,41.4,29.61,North,0,0.0,-999.0,98,-99.99,,,0.00,Acu-Link.com,2013-02-14 07:50:00,
2013-02-14 03:05:00,41.9,41.4,29.61,North,0,0.0,-999.0,98,-99.99,,,0.00,Acu-Link.com,2013-02-14 08:05:00,
2013-02-14 03:21:00,41.9,41.4,29.62,North,0,0.0,-999.0,98,-99.99,,,0.00,Acu-Link.com,2013-02-14 08:21:00,
2013-02-14 03:36:00,41.9,41.4,29.62,North,0,0.0,-999.0,98,-99.99,,,0.00,Acu-Link.com,2013-02-14 08:36:00,
2013-02-14 03:51:00,41.9,41.4,29.62,North,0,0.0,-999.0,98,-99.99,,,0.00,Acu-Link.com,2013-02-14 08:51:00,
2013-02-14 04:16:00,41.9,41.4,29.64,North,0,0.0,-999.0,98,-99.99,,,0.00,Acu-Link.com,2013-02-14 09:16:00,
2013-02-14 04:31:00,41.9,41.4,29.64,North,0,0.0,-999.0,98,-99.99,,,0.00,Acu-Link.com,2013-02-14 09:31:00,
2013-02-14 04:46:00,41.9,41.4,29.65,North,0,0.0,-999.0,98,-99.99,,,0.00,Acu-Link.com,2013-02-14 09:46:00,
2013-02-14 05:01:00,41.9,41.4,29.66,North,0,0.0,-999.0,98,-99.99,,,0.00,Acu-Link.com,2013-02-14 10:01:00,
2013-02-14 05:16:00,41.7,41.2,29.65,North,0,0.0,-999.0,98,-99.99,,,0.00,Acu-Link.com,2013-02-14 10:16:00,
2013-02-14 05:31:00,41.9,41.4,29.66,North,0,0.0,-999.0,98,-99.99,,,0.00,Acu-Link.com,2013-02-14 10:31:00,
2013-02-14 05:46:00,41.7,41.2,29.67,NE,45,0.0,-999.0,98,-99.99,,,0.00,Acu-Link.com,2013-02-14 10:46:00,
2013-02-14 06:02:00,41.5,41.0,29.68,NNE,22,1.7,-999.0,98,-99.99,,,0.00,Acu-Link.com,2013-02-14 11:02:00,
2013-02-14 06:17:00,41.4,40.9,29.68,North,0,1.7,-999.0,98,-99.99,,,0.00,Acu-Link.com,2013-02-14 11:17:00,
2013-02-14 06:32:00,40.8,40.3,29.70,North,0,0.0,-999.0,98,-99.99,,,0.00,Acu-Link.com,2013-02-14 11:32:00,
2013-02-14 06:47:00,40.5,40.0,29.71,North,0,0.0,-999.0,98,-99.99,,,0.00,Acu-Link.com,2013-02-14 11:47:00,
2013-02-14 07:03:00,40.1,39.6,29.71,WSW,247,0.0,-999.0,98,-99.99,,,0.00,Acu-Link.com,2013-02-14 12:03:00,
2013-02-14 07:18:00,40.1,39.6,29.73,South,180,0.0,-999.0,98,-99.99,,,0.00,Acu-Link.com,2013-02-14 12:18:00,
2013-02-14 07:34:00,40.3,39.8,29.73,ENE,67,0.0,-999.0,98,-99.99,,,0.00,Acu-Link.com,2013-02-14 12:34:00,
2013-02-14 07:49:00,40.5,40.0,29.74,SSE,157,0.0,-999.0,98,-99.99,,,0.00,Acu-Link.com,2013-02-14 12:49:00,
2013-02-14 08:04:00,40.6,40.1,29.75,WSW,247,0.0,-999.0,98,-99.99,,,0.00,Acu-Link.com,2013-02-14 13:04:00,
2013-02-14 08:20:00,41.0,40.5,29.75,SW,225,0.0,-999.0,98,-99.99,,,0.00,Acu-Link.com,2013-02-14 13:20:00,
2013-02-14 08:35:00,41.7,41.2,29.77,NE,45,1.1,-999.0,98,-99.99,,,0.00,Acu-Link.com,2013-02-14 13:35:00,
2013-02-14 08:50:00,42.4,41.9,29.76,NW,315,0.0,-999.0,98,-99.99,,,0.00,Acu-Link.com,2013-02-14 13:50:00,
2013-02-14 09:05:00,42.3,41.8,29.76,NW,315,0.0,-999.0,98,-99.99,,,0.00,Acu-Link.com,2013-02-14 14:05:00,
2013-02-14 09:21:00,41.9,41.4,29.76,NNE,22,0.0,-999.0,98,-99.99,,,0.00,Acu-Link.com,2013-02-14 14:21:00,
2013-02-14 09:36:00,40.8,40.3,29.76,NNW,337,2.2,-999.0,98,-99.99,,,0.00,Acu-Link.com,2013-02-14 14:36:00,
2013-02-14 09:51:00,37.0,36.5,29.77,NW,315,2.2,-999.0,98,-99.99,,,0.00,Acu-Link.com,2013-02-14 14:51:00,
2013-02-14 10:07:00,36.9,36.4,29.77,WNW,292,2.7,-999.0,98,-99.99,,,0.00,Acu-Link.com,2013-02-14 15:07:00,
2013-02-14 10:22:00,37.8,-54.5,29.77,WNW,292,3.7,-999.0,1,-99.99,,,0.02,Acu-Link.com,2013-02-14 15:22:00,
2013-02-14 10:37:00,38.7,-30.5,29.77,NE,45,1.7,-999.0,4,-99.99,,,0.03,Acu-Link.com,2013-02-14 15:37:00,
2013-02-14 10:53:00,39.7,-53.3,29.77,NE,45,3.2,-999.0,1,-99.99,,,0.05,Acu-Link.com,2013-02-14 15:53:00,
2013-02-14 11:08:00,39.9,-53.2,29.78,NNE,22,1.7,-999.0,1,-99.99,,,0.08,Acu-Link.com,2013-02-14 16:08:00,
2013-02-14 11:23:00,40.3,22.7,29.78,NE,45,2.2,-999.0,49,-99.99,,,0.08,Acu-Link.com,2013-02-14 16:23:00,
2013-02-14 11:38:00,40.8,40.3,29.77,SSE,157,3.2,-999.0,98,-99.99,,,0.09,Acu-Link.com,2013-02-14 16:38:00,
2013-02-14 11:54:00,41.5,-52.2,29.77,North,0,2.7,-999.0,1,-99.99,,,0.09,Acu-Link.com,2013-02-14 16:54:00,
2013-02-14 12:09:00,41.5,-52.2,29.78,NE,45,1.1,-999.0,1,-99.99,,,0.09,Acu-Link.com,2013-02-14 17:09:00,
2013-02-14 12:24:00,42.8,-51.4,29.77,ESE,112,1.1,-999.0,1,-99.99,,,0.09,Acu-Link.com,2013-02-14 17:24:00,
2013-02-14 12:40:00,43.2,-51.1,29.76,NE,45,1.7,-999.0,1,-99.99,,,0.09,Acu-Link.com,2013-02-14 17:40:00,
2013-02-14 18:46:00,37.4,36.9,29.81,SSE,157,0.0,-999.0,98,-99.99,,,0.09,Acu-Link.com,2013-02-14 23:46:00,
2013-02-14 19:02:00,37.4,36.9,29.81,South,180,0.0,-999.0,98,-99.99,,,0.09,Acu-Link.com,2013-02-15 00:02:00,
2013-02-14 19:17:00,37.2,-54.8,29.82,SW,225,0.0,-999.0,1,-99.99,,,0.09,Acu-Link.com,2013-02-15 00:17:00,
2013-02-14 19:32:00,37.0,-55.0,29.82,South,180,0.0,-999.0,1,-99.99,,,0.09,Acu-Link.com,2013-02-15 00:32:00,
2013-02-14 19:47:00,36.9,-55.0,29.82,SW,225,1.7,-999.0,1,-99.99,,,0.09,Acu-Link.com,2013-02-15 00:47:00,
2013-02-14 20:03:00,37.2,-54.8,29.82,SW,225,2.2,-999.0,1,-99.99,,,0.09,Acu-Link.com,2013-02-15 01:03:00,
2013-02-14 20:18:00,37.9,-54.4,29.81,SSE,157,1.1,-999.0,1,-99.99,,,0.09,Acu-Link.com,2013-02-15 01:18:00,
2013-02-14 20:33:00,37.6,-54.6,29.82,SSE,157,2.7,-999.0,1,-99.99,,,0.09,Acu-Link.com,2013-02-15 01:33:00,
2013-02-14 20:49:00,37.6,-54.6,29.82,SE,135,1.7,-999.0,1,-99.99,,,0.09,Acu-Link.com,2013-02-15 01:49:00,
2013-02-14 21:04:00,37.9,-54.4,29.81,SSW,202,0.0,-999.0,1,-99.99,,,0.09,Acu-Link.com,2013-02-15 02:04:00,
2013-02-14 21:19:00,37.6,-54.6,29.82,ENE,67,0.0,-999.0,1,-99.99,,,0.09,Acu-Link.com,2013-02-15 02:19:00,
2013-02-14 21:35:00,37.2,-54.8,29.83,West,270,1.7,-999.0,1,-99.99,,,0.09,Acu-Link.com,2013-02-15 02:35:00,
2013-02-14 21:50:00,36.7,-55.1,29.83,West,270,0.0,-999.0,1,-99.99,,,0.09,Acu-Link.com,2013-02-15 02:50:00,
2013-02-14 22:05:00,36.3,-55.4,29.82,SSE,157,0.0,-999.0,1,-99.99,,,0.09,Acu-Link.com,2013-02-15 03:05:00,
2013-02-14 22:21:00,36.1,-55.5,29.83,SE,135,2.2,-999.0,1,-99.99,,,0.09,Acu-Link.com,2013-02-15 03:21:00,
2013-02-14 22:36:00,35.8,-55.7,29.83,ESE,112,1.1,-999.0,1,-99.99,,,0.09,Acu-Link.com,2013-02-15 03:36:00,
2013-02-14 22:51:00,36.0,29.8,29.83,West,270,2.7,-999.0,78,-99.99,,,0.09,Acu-Link.com,2013-02-15 03:51:00,
2013-02-14 23:07:00,36.3,7.1,29.83,SSE,157,1.1,-999.0,29,-99.99,,,0.09,Acu-Link.com,2013-02-15 04:07:00,
2013-02-14 23:22:00,36.3,19.5,29.82,SSE,157,2.7,-999.0,50,-99.99,,,0.09,Acu-Link.com,2013-02-15 04:22:00,
2013-02-14 23:37:00,36.3,24.9,29.82,NE,45,0.0,-999.0,63,-99.99,,,0.09,Acu-Link.com,2013-02-15 04:37:00,
2013-02-14 23:53:00,36.5,19.2,29.83,SW,225,0.0,-999.0,49,-99.99,,,0.09,Acu-Link.com,2013-02-15 04:53:00,